Location: Newark
(48.9320°N, 2.2664°E)
Time: 23:49:55
(UTC+00:00)

Vanguard 1 Rocket - Pass Details

Date: 25 February 2020
Orbit: 650 x 4226 km, 34.3° (Epoch: 01 April)

Event Time Altitude Azimuth Distance (km) Brightness Sun altitude
Rises 22:30:29 0° 196° (SSW) 6,826 - -45.5°
Reaches altitude 10° 22:41:08 10° 164° (SSE) 4,607 - -46.5°
Maximum altitude 22:42:58 10° 155° (SSE) 4,342 - -46.6°
Drops below altitude 10° 22:44:40 10° 146° (SSE) 4,164 - -46.8°
Sets 22:51:19 0° 109° (ESE) 4,282 - -47.3°
